THOR ABLESTAR DEB, 745

Orbit data source: Space-Track

THOR ABLESTAR DEB, 745 is space debris in LEO originally from a launch on Sat, 28 Sep 1963 UTC launched from the Air Force Western Test Range (AFWTR). Debris objects in space refer to the collection of defunct objects orbiting the Earth. Examples of debris include non-operational satellites, rocket bodies, and fragments generated from explosions, collisions, or faulty payload assembly.

Loading next visibility...
Identifier
745, 1963-038E
Orbit
LEO
Last TLE update
15 hours ago
Origin
Manufacturer
Unknown
Mission
Spacecraft
Bus & Motor
Unknown
Mass
Unknown
Launch date (UTC)
1963-09-28 (62 years ago)
Launch vehicle
Unknown
Launch site
Air Force Western Test Range (AFWTR)
Object type
Payload
Rocket body
Debris
Shape & HBR
Unknown
Radar Cross Section
Small (<0.1 m²)

Expand to show TLE details & history

TLE from 15 hours ago
0 THOR ABLESTAR DEB
1 00745U 63038E   25193.88920756  .00000110  00000-0  14481-3 0  9994
2 00745  89.9969 336.4398 0017415 195.8987 330.3224 13.55435662 45465
Epoch: 2025-07-12T21:20Z
TLE epoch observation values (Epoch: 2025-07-12T21:20:27.533Z)
Latitude
13.84503°
Longitude
-94.69599°
Altitude
1,043.316 km
Speed
7.337 km/s
True Right ascension
10h 25m 45s
True Declination
13° 46' 06"
Sunlit
Object was in daylight at epoch
Visualization orbit readout
Latitude
-76.03299°
Longitude
85.29218°
Altitude
1,079.864 km
Speed
7.312 km/s
Apparent Right ascension
13h 34m 21s
Apparent Declination
-72° 49' 15"
Sunlit
Object is in full shadow
Visualization observer readout
Local Sidereal Time
00:31:39
Azimuth
188.251° SSW
Elevation
-56.217°
Doppler factor
1
Orbital elements
Apogee altitude
1,062.303 km
Perigee altitude
1,036.433 km
Semi-major axis
7,427.505 km
Eccentricity
0.00174
Inclination
89.9969°
RAAN
336.4398°
Arg. of periapsis
195.8987°
True anomaly
Unknown
Mean anomaly
330.3224°
Eccentric anomaly
Unknown
Mean motion
3.39062 °/min
Orbital period
106.18 mins
BSTAR
0.00014481
Loading maneuver chart data...
Loading SW <> Apogee altitude chart data...

THOR ABLESTAR DEB Visibility forecast

Observer location: undefined°, undefined°

Span
Click to sort rows by Start time (UTC) header in descending order
Start Az.
Max El. time (UTC)
Max El. Az.
Max El.
End time (UTC)
End Az.
5 mins2025-07-13 20:11:37.207Z51.685° ENE2025-07-13 20:14:37.207Z80.607° E13.226°2025-07-13 20:16:37.207Z99.579° ESE
11 mins2025-07-13 21:55:37.207Z1.034° NNE2025-07-13 22:00:37.207Z340.772° N44.545°2025-07-13 22:06:37.207Z186.109° SSW
4 mins2025-07-14 08:08:37.207Z87.041° E2025-07-14 08:10:37.207Z67.865° E13.17°2025-07-14 08:12:37.207Z48.927° ENE
11 mins2025-07-14 09:50:37.207Z175.562° S2025-07-14 09:55:37.207Z21.242° NNE44.983°2025-07-14 10:01:37.207Z358.075° N
4 mins2025-07-14 11:40:37.207Z267.006° W2025-07-14 11:42:37.207Z286.174° WNW12.99°2025-07-14 11:44:37.207Z305.044° NW
|